TimeEST,TemperatureF,Dew PointF,Humidity,Sea Level PressureIn,VisibilityMPH,Wind Direction,Wind SpeedMPH,Gust SpeedMPH,PrecipitationIn,Events,Conditions,WindDirDegrees,DateUTC
12:15 AM,53.6,44.6,72,30.34,10.0,NNE,10.4,16.1,N/A,,Overcast,30,2011-12-12 05:15:00
12:35 AM,53.6,44.6,72,30.33,10.0,NE,12.7,19.6,N/A,,Overcast,40,2011-12-12 05:35:00
12:55 AM,53.6,44.6,72,30.32,10.0,NE,15.0,19.6,N/A,,Overcast,40,2011-12-12 05:55:00
1:15 AM,53.6,44.6,72,30.33,10.0,NNE,12.7,19.6,N/A,,Overcast,20,2011-12-12 06:15:00
1:35 AM,53.6,44.6,72,30.34,10.0,NNE,8.1,19.6,N/A,,Overcast,20,2011-12-12 06:35:00
1:55 AM,51.8,46.4,82,30.33,10.0,NNE,8.1,-,N/A,,Overcast,30,2011-12-12 06:55:00
2:15 AM,50.0,46.4,87,30.32,10.0,NE,9.2,-,N/A,,Overcast,50,2011-12-12 07:15:00
2:35 AM,50.0,46.4,87,30.33,10.0,NNE,6.9,-,N/A,,Overcast,30,2011-12-12 07:35:00
2:55 AM,50.0,46.4,87,30.31,10.0,NNE,11.5,-,N/A,,Overcast,30,2011-12-12 07:55:00
3:15 AM,50.0,46.4,87,30.29,10.0,NE,9.2,-,N/A,,Overcast,40,2011-12-12 08:15:00
3:35 AM,50.0,46.4,87,30.31,10.0,North,9.2,-,N/A,,Overcast,10,2011-12-12 08:35:00
3:55 AM,50.0,46.4,87,30.33,10.0,North,4.6,-,N/A,,Overcast,350,2011-12-12 08:55:00
4:15 AM,48.2,46.4,93,30.29,4.0,North,10.4,-,N/A,,Overcast,10,2011-12-12 09:15:00
4:35 AM,48.2,46.4,93,30.30,10.0,NNE,9.2,-,N/A,,Overcast,30,2011-12-12 09:35:00
4:55 AM,48.2,46.4,93,30.31,10.0,NNE,6.9,-,N/A,,Overcast,20,2011-12-12 09:55:00
5:15 AM,48.2,46.4,93,30.31,10.0,NNE,8.1,-,N/A,,Overcast,30,2011-12-12 10:15:00
5:35 AM,48.2,46.4,93,30.33,10.0,NNE,8.1,-,N/A,,Overcast,20,2011-12-12 10:35:00
5:55 AM,48.2,46.4,93,30.36,7.0,WNW,6.9,-,N/A,,Overcast,290,2011-12-12 10:55:00
6:15 AM,46.4,46.4,100,30.34,7.0,North,8.1,-,N/A,,Overcast,10,2011-12-12 11:15:00
6:35 AM,46.4,44.6,93,30.35,7.0,North,8.1,16.1,N/A,,Overcast,10,2011-12-12 11:35:00
6:55 AM,46.4,44.6,93,30.37,10.0,North,8.1,-,N/A,,Overcast,360,2011-12-12 11:55:00
7:15 AM,46.4,44.6,93,30.37,10.0,North,6.9,-,N/A,,Overcast,360,2011-12-12 12:15:00
7:35 AM,46.4,44.6,93,30.38,10.0,NNE,5.8,-,N/A,,Overcast,20,2011-12-12 12:35:00
7:55 AM,46.4,44.6,93,30.38,4.0,North,5.8,-,N/A,,Overcast,10,2011-12-12 12:55:00
8:15 AM,46.4,44.6,93,30.39,5.0,North,6.9,-,N/A,,Overcast,10,2011-12-12 13:15:00
8:35 AM,46.4,46.4,100,30.37,7.0,NNE,6.9,-,N/A,,Overcast,20,2011-12-12 13:35:00
8:55 AM,48.2,46.4,93,30.38,7.0,North,4.6,-,N/A,,Overcast,10,2011-12-12 13:55:00
9:15 AM,48.2,46.4,93,30.40,7.0,NE,8.1,-,N/A,,Overcast,40,2011-12-12 14:15:00
9:35 AM,50.0,46.4,87,30.40,5.0,NNE,3.5,-,N/A,,Overcast,20,2011-12-12 14:35:00
9:55 AM,50.0,48.2,94,30.40,10.0,NNE,8.1,-,N/A,,Overcast,20,2011-12-12 14:55:00
10:15 AM,50.0,48.2,94,30.42,10.0,NE,8.1,-,N/A,,Overcast,40,2011-12-12 15:15:00
10:35 AM,50.0,48.2,94,30.42,7.0,NNE,5.8,-,N/A,,Overcast,20,2011-12-12 15:35:00
10:55 AM,50.0,48.2,94,30.42,7.0,NE,5.8,-,N/A,,Overcast,40,2011-12-12 15:55:00
11:15 AM,50.0,48.2,94,30.41,10.0,NNE,4.6,-,N/A,,Overcast,30,2011-12-12 16:15:00
11:35 AM,50.0,50.0,100,30.40,10.0,NE,8.1,-,N/A,,Overcast,40,2011-12-12 16:35:00
11:55 AM,50.0,50.0,100,30.39,10.0,NE,10.4,-,N/A,,Overcast,40,2011-12-12 16:55:00
12:15 PM,50.0,50.0,100,30.39,7.0,NE,8.1,-,N/A,,Overcast,40,2011-12-12 17:15:00
12:35 PM,51.8,50.0,94,30.38,7.0,NE,9.2,-,N/A,,Overcast,50,2011-12-12 17:35:00
12:55 PM,51.8,50.0,94,30.37,10.0,NE,8.1,-,N/A,,Overcast,40,2011-12-12 17:55:00
1:15 PM,51.8,51.8,100,30.36,10.0,NNE,5.8,-,N/A,,Overcast,30,2011-12-12 18:15:00
1:35 PM,51.8,51.8,100,30.35,10.0,NNE,6.9,-,N/A,,Overcast,30,2011-12-12 18:35:00
1:55 PM,51.8,51.8,100,30.33,10.0,NNE,6.9,-,N/A,,Overcast,30,2011-12-12 18:55:00
2:15 PM,53.6,51.8,94,30.33,10.0,NE,8.1,-,N/A,,Overcast,50,2011-12-12 19:15:00
2:35 PM,53.6,51.8,94,30.32,10.0,NNE,6.9,-,N/A,,Overcast,30,2011-12-12 19:35:00
2:55 PM,53.6,51.8,94,30.32,7.0,NNE,6.9,-,N/A,,Overcast,30,2011-12-12 19:55:00
3:15 PM,53.6,51.8,94,30.32,7.0,NNE,8.1,-,N/A,,Overcast,20,2011-12-12 20:15:00
3:35 PM,53.6,51.8,94,30.31,10.0,NE,9.2,-,N/A,,Overcast,40,2011-12-12 20:35:00
3:55 PM,53.6,51.8,94,30.32,7.0,NNE,9.2,-,N/A,,Overcast,30,2011-12-12 20:55:00
4:15 PM,53.6,51.8,94,30.32,7.0,NNE,9.2,16.1,N/A,,Overcast,30,2011-12-12 21:15:00
4:35 PM,53.6,51.8,94,30.32,7.0,NNE,10.4,16.1,N/A,,Overcast,30,2011-12-12 21:35:00
4:55 PM,53.6,51.8,94,30.33,5.0,North,6.9,-,N/A,,Overcast,10,2011-12-12 21:55:00
5:15 PM,51.8,51.8,100,30.34,4.0,North,6.9,-,N/A,,Overcast,10,2011-12-12 22:15:00
5:35 PM,51.8,51.8,100,30.34,2.5,North,8.1,-,N/A,,Overcast,10,2011-12-12 22:35:00
5:55 PM,51.8,51.8,100,30.34,1.5,North,9.2,-,N/A,,Overcast,360,2011-12-12 22:55:00
6:15 PM,51.8,51.8,100,30.34,1.0,North,8.1,16.1,N/A,,Overcast,10,2011-12-12 23:15:00
6:35 PM,51.8,50.0,94,30.35,1.0,North,10.4,-,N/A,,Overcast,10,2011-12-12 23:35:00
6:55 PM,51.8,50.0,94,30.36,1.0,North,5.8,16.1,N/A,,Overcast,350,2011-12-12 23:55:00
7:15 PM,50.0,50.0,100,30.37,1.2,North,8.1,-,N/A,,Overcast,360,2011-12-13 00:15:00
7:35 PM,50.0,50.0,100,30.38,1.2,North,9.2,-,N/A,,Overcast,360,2011-12-13 00:35:00
7:55 PM,50.0,50.0,100,30.38,1.2,North,5.8,-,N/A,,Overcast,360,2011-12-13 00:55:00
8:15 PM,50.0,50.0,100,30.38,1.2,North,8.1,-,N/A,,Overcast,360,2011-12-13 01:15:00
8:35 PM,50.0,50.0,100,30.39,1.2,North,6.9,-,N/A,,Overcast,10,2011-12-13 01:35:00
8:55 PM,50.0,50.0,100,30.39,1.2,North,6.9,-,N/A,,Overcast,360,2011-12-13 01:55:00
9:15 PM,50.0,50.0,100,30.38,1.8,NNE,6.9,-,N/A,,Overcast,30,2011-12-13 02:15:00
9:35 PM,50.0,50.0,100,30.39,1.8,NNE,4.6,-,N/A,,Overcast,20,2011-12-13 02:35:00
9:55 PM,50.0,50.0,100,30.39,2.5,North,10.4,-,N/A,,Overcast,10,2011-12-13 02:55:00
10:15 PM,50.0,50.0,100,30.39,3.0,North,8.1,-,N/A,,Overcast,360,2011-12-13 03:15:00
10:35 PM,50.0,50.0,100,30.39,3.0,NNE,4.6,-,N/A,,Overcast,20,2011-12-13 03:35:00
10:55 PM,50.0,50.0,100,30.39,5.0,NNE,4.6,-,N/A,,Overcast,20,2011-12-13 03:55:00
11:15 PM,50.0,48.2,94,30.39,10.0,NNE,5.8,-,N/A,,Overcast,20,2011-12-13 04:15:00
11:35 PM,50.0,48.2,94,30.39,10.0,North,5.8,-,N/A,,Overcast,10,2011-12-13 04:35:00
11:55 PM,50.0,46.4,87,30.38,10.0,North,3.5,-,N/A,,Overcast,360,2011-12-13 04:55:00